Location: Ayer Observatory
(42.2600°N, 71.0700°W)
Time: 18:52:13
(UTC-04:00)

FO-29 - Pass Details

Date: 31 August 2019
Orbit: 800 x 1321 km, 98.6° (Epoch: 18 September)

Event Time Altitude Azimuth Distance (km) Brightness Sun altitude
Exits shadow 04:31:48 22° 279° (W) 1,707 10.4 -17.4°
Drops below altitude 10° 04:35:05 10° 318° (NW) 2,385 11.4 -16.9°
Sets 04:37:57 0° 333° (NNW) 3,340 12.3 -16.4°
